📊 Raw Sensor Data

Showing records 36726 to 36750 of 84,901 total

ID Distance (ft) Battery V Battery A Int Temp (°F) Int Humid (%) Ext Temp (°F) Solar V RSSI SNR Time Stamp
48188 14.9 3.88 -5 65 49 65 0.00 -69 8 08/03/2025 09:45 PM
48187 14.9 3.88 -5 66 50 66 0.00 -69 8 08/03/2025 09:30 PM
48186 14.9 3.94 -5 67 50 67 0.00 -70 8 08/03/2025 09:15 PM
48185 14.9 3.89 -5 68 52 68 0.00 -69 8 08/03/2025 09:00 PM
48184 14.9 3.89 -5 70 53 69 0.00 -68 8 08/03/2025 08:45 PM
48183 15.0 3.95 -5 72 54 71 0.50 -70 8 08/03/2025 08:30 PM
48182 15.0 3.88 -10 75 55 72 3.20 -69 8 08/03/2025 08:15 PM
48181 15.0 3.96 0 79 55 75 4.50 -70 8 08/03/2025 08:00 PM
48180 15.0 3.97 0 83 54 78 4.50 -70 7 08/03/2025 07:45 PM
48179 15.1 3.98 5 87 53 80 4.60 -70 7 08/03/2025 07:30 PM
48178 15.1 3.99 10 89 53 82 4.60 -72 7 08/03/2025 07:15 PM
48177 15.1 3.96 21 91 52 84 4.50 -70 8 08/03/2025 07:00 PM
48176 15.1 3.95 5 95 50 88 5.10 -71 7 08/03/2025 06:30 PM
48175 15.1 3.95 0 96 49 89 5.10 -71 8 08/03/2025 06:15 PM
48174 15.1 3.95 5 96 49 89 5.10 -69 7 08/03/2025 06:00 PM
48173 15.1 3.95 0 96 50 88 5.10 -71 8 08/03/2025 05:45 PM
48172 15.2 3.95 0 98 49 88 5.10 -71 8 08/03/2025 05:30 PM
48171 15.1 3.95 0 99 48 90 5.10 -71 7 08/03/2025 05:15 PM
48170 15.2 4.03 5 100 47 91 5.10 -70 7 08/03/2025 05:00 PM
48169 15.1 3.95 0 99 47 91 5.10 -70 7 08/03/2025 04:45 PM
48168 15.1 4.08 5 100 46 91 5.10 -69 8 08/03/2025 04:30 PM
48167 15.1 3.95 5 101 45 92 5.10 -71 7 08/03/2025 04:15 PM
48166 15.1 3.94 0 101 45 90 5.10 -71 8 08/03/2025 04:00 PM
48165 15.1 3.94 0 102 44 90 5.10 -70 8 08/03/2025 03:45 PM
48164 15.1 3.94 5 101 44 92 5.10 -69 8 08/03/2025 03:30 PM